| time (UTC) | temp F | wind direction | speed MPH | gust MPH | rain 1hr in | rain 24hr in | rain mn in | humidity % | barometer mb |
| 20260510030016 | 55 | 341 | 4.0 | 6.0 | 0.00 | 0.00 | 0.00 | 80 | 1009.2 |
| 20260510024515 | 55 | 360 | 3.0 | 6.0 | 0.00 | 0.00 | 0.00 | 80 | 1009.2 |
| 20260510023013 | 55 | 350 | 3.0 | 6.0 | 0.00 | 0.00 | 0.00 | 80 | 1009.2 |
| 20260510021523 | 56 | 355 | 2.0 | 5.0 | 0.00 | 0.00 | 0.00 | 79 | 1009.3 |
| 20260510020010 | 56 | 355 | 3.0 | 8.0 | 0.00 | 0.00 | 0.00 | 79 | 1009.3 |
| 20260510014508 | 56 | 350 | 4.0 | 6.0 | 0.00 | 0.00 | 0.00 | 80 | 1009.4 |
| 20260510013007 | 56 | 344 | 3.0 | 6.0 | 0.00 | 0.00 | 0.00 | 80 | 1009.5 |
| 20260510011506 | 56 | 333 | 3.0 | 8.0 | 0.00 | 0.00 | 0.00 | 80 | 1009.6 |
| 20260510010007 | 56 | 355 | 2.0 | 4.0 | 0.00 | 0.00 | 0.00 | 79 | 1009.7 |
| 20260510004504 | 56 | 355 | 3.0 | 5.0 | 0.00 | 0.00 | 0.00 | 79 | 1009.9 |
| 20260510003005 | 57 | 355 | 2.0 | 4.0 | 0.00 | 0.00 | 0.00 | 79 | 1010.1 |
| 20260510001504 | 58 | 360 | 2.0 | 5.0 | 0.00 | 0.00 | 0.00 | 80 | 1010.4 |
| 20260510000104 | 58 | 12 | 3.0 | 5.0 | 0.00 | 0.00 | 0.00 | 78 | 1010.5 |
| 20260509234529 | 58 | 20 | 2.0 | 5.0 | 0.00 | 0.00 | 0.00 | 77 | 1010.6 |
| 20260509233101 | 59 | 26 | 2.0 | 8.0 | 0.00 | 0.00 | 0.00 | 76 | 1010.7 |
| 20260509231516 | 59 | 24 | 4.0 | 10.0 | 0.00 | 0.00 | 0.00 | 77 | 1010.6 |
| 20260509230015 | 59 | 25 | 2.0 | 5.0 | 0.00 | 0.00 | 0.00 | 77 | 1010.7 |
| 20260509224512 | 60 | 24 | 2.0 | 5.0 | 0.00 | 0.00 | 0.00 | 77 | 1010.9 |
| 20260509223013 | 60 | 26 | 3.0 | 6.0 | 0.00 | 0.00 | 0.00 | 77 | 1010.8 |
| 20260509221511 | 60 | 32 | 3.0 | 5.0 | 0.00 | 0.00 | 0.00 | 76 | 1010.8 |
| 20260509220007 | 61 | 34 | 1.0 | 4.0 | 0.00 | 0.00 | 0.00 | 74 | 1011.1 |
| 20260509214505 | 62 | 34 | 2.0 | 4.0 | 0.00 | 0.00 | 0.00 | 73 | 1010.9 |
| 20260509213007 | 62 | 34 | 2.0 | 5.0 | 0.00 | 0.00 | 0.00 | 73 | 1011.3 |
| 20260509211508 | 63 | 36 | 2.0 | 5.0 | 0.00 | 0.00 | 0.00 | 71 | 1011.2 |
| 20260509210118 | 63 | 36 | 2.0 | 4.0 | 0.00 | 0.00 | 0.00 | 70 | 1011.0 |
| 20260509203019 | 65 | 35 | 2.0 | 6.0 | 0.00 | 0.00 | 0.00 | 68 | 1010.9 |
| 20260509201604 | 65 | 37 | 3.0 | 6.0 | 0.00 | 0.00 | 0.00 | 68 | 1010.9 |
| 20260509200012 | 66 | 36 | 2.0 | 6.0 | 0.00 | 0.00 | 0.00 | 67 | 1010.8 |
| 20260509194509 | 67 | 39 | 2.0 | 5.0 | 0.00 | 0.00 | 0.00 | 65 | 1010.7 |
| 20260509193012 | 68 | 44 | 2.0 | 5.0 | 0.00 | 0.00 | 0.00 | 64 | 1010.4 |
| 20260509191509 | 68 | 360 | 2.0 | 6.0 | 0.00 | 0.00 | 0.00 | 62 | 1010.4 |
| 20260509190008 | 69 | 40 | 3.0 | 6.0 | 0.00 | 0.00 | 0.00 | 61 | 1010.4 |
| 20260509184508 | 70 | 44 | 3.0 | 6.0 | 0.00 | 0.00 | 0.00 | 59 | 1010.5 |
| 20260509183006 | 70 | 83 | 4.0 | 12.0 | 0.00 | 0.00 | 0.00 | 57 | 1010.2 |
| 20260509181504 | 71 | 79 | 3.0 | 11.0 | 0.00 | 0.00 | 0.00 | 56 | 1010.1 |
| 20260509180004 | 72 | 84 | 5.0 | 12.0 | 0.00 | 0.00 | 0.00 | 55 | 1010.2 |
| 20260509174605 | 73 | 86 | 6.0 | 13.0 | 0.00 | 0.00 | 0.00 | 54 | 1010.2 |
| 20260509173017 | 73 | 83 | 7.0 | 14.0 | 0.00 | 0.00 | 0.00 | 50 | 1010.1 |
| 20260509171525 | 74 | 93 | 3.0 | 11.0 | 0.00 | 0.00 | 0.00 | 50 | 1010.2 |
| 20260509170025 | 74 | 70 | 6.0 | 12.0 | 0.00 | 0.00 | 0.00 | 48 | 1010.3 |
| 20260509164515 | 74 | 90 | 6.0 | 12.0 | 0.00 | 0.00 | 0.00 | 47 | 1010.5 |
| 20260509163015 | 75 | 94 | 4.0 | 9.0 | 0.00 | 0.00 | 0.00 | 49 | 1010.3 |
| 20260509161512 | 74 | 79 | 6.0 | 12.0 | 0.00 | 0.00 | 0.00 | 48 | 1010.5 |
| 20260509160036 | 75 | 83 | 5.0 | 16.0 | 0.00 | 0.00 | 0.00 | 47 | 1010.5 |
| 20260509154519 | 76 | 80 | 3.0 | 14.0 | 0.00 | 0.00 | 0.00 | 45 | 1010.7 |
| 20260509153015 | 76 | 71 | 3.0 | 12.0 | 0.00 | 0.00 | 0.00 | 48 | 1010.8 |
| 20260509151512 | 76 | 97 | 9.0 | 19.0 | 0.00 | 0.00 | 0.00 | 47 | 1011.1 |
| 20260509150017 | 76 | 77 | 6.0 | 13.0 | 0.00 | 0.00 | 0.00 | 49 | 1011.3 |
| 20260509144509 | 76 | 79 | 5.0 | 15.0 | 0.00 | 0.00 | 0.00 | 50 | 1011.4 |
| 20260509143007 | 76 | 42 | 9.0 | 16.0 | 0.00 | 0.00 | 0.00 | 49 | 1011.4 |
| 20260509141509 | 75 | 102 | 4.0 | 12.0 | 0.00 | 0.00 | 0.00 | 51 | 1011.3 |
| 20260509140006 | 75 | 76 | 7.0 | 15.0 | 0.00 | 0.00 | 0.00 | 53 | 1011.4 |
| 20260509134509 | 73 | 49 | 6.0 | 15.0 | 0.00 | 0.00 | 0.00 | 53 | 1011.3 |
| 20260509133103 | 74 | 40 | 10.0 | 19.0 | 0.00 | 0.00 | 0.00 | 54 | 1011.4 |
| 20260509131524 | 73 | 111 | 9.0 | 16.0 | 0.00 | 0.00 | 0.00 | 55 | 1011.5 |
| 20260509130018 | 74 | 57 | 5.0 | 13.0 | 0.00 | 0.00 | 0.00 | 54 | 1011.7 |
| 20260509124521 | 74 | 68 | 9.0 | 17.0 | 0.00 | 0.00 | 0.00 | 53 | 1011.7 |
| 20260509123016 | 74 | 71 | 7.0 | 20.0 | 0.00 | 0.00 | 0.00 | 54 | 1011.9 |
| 20260509121523 | 74 | 46 | 7.0 | 12.0 | 0.00 | 0.00 | 0.00 | 54 | 1012.0 |
| 20260509120015 | 73 | 115 | 4.0 | 11.0 | 0.00 | 0.00 | 0.00 | 56 | 1012.2 |
| 20260509114523 | 73 | 85 | 6.0 | 15.0 | 0.00 | 0.00 | 0.00 | 55 | 1012.4 |
| 20260509113010 | 73 | 82 | 5.0 | 11.0 | 0.00 | 0.00 | 0.00 | 56 | 1012.5 |
| 20260509111511 | 72 | 66 | 4.0 | 10.0 | 0.00 | 0.00 | 0.00 | 57 | 1012.7 |
| 20260509110009 | 70 | 53 | 4.0 | 13.0 | 0.00 | 0.00 | 0.00 | 59 | 1012.8 |
| 20260509104507 | 70 | 44 | 4.0 | 9.0 | 0.00 | 0.00 | 0.00 | 59 | 1013.0 |
| 20260509103006 | 69 | 43 | 5.0 | 11.0 | 0.00 | 0.00 | 0.00 | 61 | 1013.0 |
| 20260509101508 | 69 | 51 | 5.0 | 13.0 | 0.00 | 0.00 | 0.00 | 61 | 1013.0 |
| 20260509100013 | 68 | 48 | 5.0 | 10.0 | 0.00 | 0.00 | 0.00 | 61 | 1013.1 |
| 20260509094511 | 68 | 61 | 3.0 | 6.0 | 0.00 | 0.00 | 0.00 | 64 | 1013.1 |
| 20260509093004 | 67 | 42 | 4.0 | 10.0 | 0.00 | 0.00 | 0.00 | 64 | 1013.3 |
| 20260509091503 | 66 | 85 | 4.0 | 10.0 | 0.00 | 0.00 | 0.00 | 66 | 1013.3 |
| 20260509090005 | 65 | 59 | 2.0 | 7.0 | 0.00 | 0.00 | 0.00 | 69 | 1013.4 |
| 20260509084511 | 63 | 38 | 4.0 | 9.0 | 0.00 | 0.00 | 0.00 | 71 | 1013.4 |
| 20260509083103 | 62 | 355 | 3.0 | 9.0 | 0.00 | 0.00 | 0.00 | 73 | 1013.4 |
| 20260509081521 | 61 | 46 | 2.0 | 7.0 | 0.00 | 0.00 | 0.00 | 74 | 1013.5 |
| 20260509080019 | 59 | 360 | 4.0 | 6.0 | 0.00 | 0.00 | 0.00 | 75 | 1013.8 |
| 20260509074519 | 59 | 24 | 4.0 | 7.0 | 0.00 | 0.00 | 0.00 | 75 | 1013.9 |
| 20260509073018 | 58 | 68 | 2.0 | 6.0 | 0.00 | 0.00 | 0.00 | 76 | 1014.0 |
| 20260509071516 | 57 | 38 | 5.0 | 10.0 | 0.00 | 0.00 | 0.00 | 78 | 1014.0 |
| 20260509070016 | 55 | 44 | 5.0 | 9.0 | 0.00 | 0.00 | 0.00 | 81 | 1014.1 |
| 20260509064512 | 54 | 47 | 3.0 | 7.0 | 0.00 | 0.00 | 0.00 | 84 | 1014.1 |
| 20260509063010 | 53 | 53 | 3.0 | 6.0 | 0.00 | 0.00 | 0.00 | 87 | 1014.0 |
| 20260509061511 | 51 | 355 | 1.0 | 6.0 | 0.00 | 0.00 | 0.00 | 89 | 1014.1 |
| 20260509060011 | 50 | 5 | 4.0 | 8.0 | 0.00 | 0.00 | 0.00 | 89 | 1013.9 |
| 20260509054510 | 49 | 344 | 3.0 | 8.0 | 0.00 | 0.00 | 0.00 | 89 | 1013.9 |
| 20260509053010 | 48 | 342 | 4.0 | 8.0 | 0.00 | 0.00 | 0.00 | 90 | 1013.7 |
| 20260509051505 | 48 | 340 | 3.0 | 6.0 | 0.00 | 0.00 | 0.00 | 89 | 1013.7 |
| 20260509050007 | 47 | 344 | 4.0 | 8.0 | 0.00 | 0.00 | 0.00 | 90 | 1013.7 |
| 20260509044506 | 47 | 355 | 3.0 | 6.0 | 0.00 | 0.00 | 0.00 | 89 | 1013.7 |
| 20260509043005 | 47 | 347 | 3.0 | 6.0 | 0.00 | 0.00 | 0.00 | 89 | 1013.6 |
| 20260509041505 | 47 | 350 | 3.0 | 6.0 | 0.00 | 0.00 | 0.00 | 89 | 1013.6 |
| 20260509040010 | 47 | 351 | 3.0 | 5.0 | 0.00 | 0.00 | 0.00 | 89 | 1013.6 |
| 20260509034519 | 47 | 346 | 3.0 | 5.0 | 0.00 | 0.00 | 0.00 | 89 | 1013.9 |
| 20260509033003 | 48 | 336 | 4.0 | 8.0 | 0.00 | 0.00 | 0.00 | 89 | 1013.7 |
| 20260509031505 | 48 | 348 | 3.0 | 6.0 | 0.00 | 0.00 | 0.00 | 89 | 1014.0 |